Time,TemperatureF,DewpointF,PressureIn,WindDirection,WindDirectionDegrees,WindSpeedMPH,WindSpeedGustMPH,Humidity,HourlyPrecipIn,Conditions,Clouds,dailyrainin,SolarRadiationWatts/m^2,SoftwareType,DateUTC
2013-08-02 00:13:00,69.4,63.0,29.85,SSW,205,6.0,-999.0,79,-99.99,,,0.00,0,weatherlink.com 1.10,2013-08-02 05:13:00,
2013-08-02 00:28:00,68.9,63.0,29.85,SSW,206,9.0,-999.0,80,-99.99,,,0.00,0,weatherlink.com 1.10,2013-08-02 05:28:00,
2013-08-02 00:43:00,68.3,63.0,29.85,SSW,195,7.0,-999.0,82,-99.99,,,0.00,0,weatherlink.com 1.10,2013-08-02 05:43:00,
2013-08-02 00:59:00,67.6,62.0,29.84,SSW,198,4.0,-999.0,83,-99.99,,,0.00,0,weatherlink.com 1.10,2013-08-02 05:59:00,
2013-08-02 01:14:00,67.3,62.0,29.84,SSW,200,4.0,-999.0,84,-99.99,,,0.00,0,weatherlink.com 1.10,2013-08-02 06:14:00,
2013-08-02 01:29:00,67.3,62.0,29.83,SSW,197,4.0,-999.0,84,-99.99,,,0.00,0,weatherlink.com 1.10,2013-08-02 06:29:00,
2013-08-02 01:44:00,67.8,63.0,29.83,SSW,209,6.0,-999.0,84,-99.99,,,0.00,0,weatherlink.com 1.10,2013-08-02 06:44:00,
2013-08-02 01:59:00,67.9,63.0,29.83,SSW,205,7.0,-999.0,84,-99.99,,,0.00,0,weatherlink.com 1.10,2013-08-02 06:59:00,
2013-08-02 02:14:00,68.1,63.0,29.82,SW,218,9.0,-999.0,83,-99.99,,,0.00,0,weatherlink.com 1.10,2013-08-02 07:14:00,
2013-08-02 02:29:00,68.3,63.0,29.82,SSW,211,9.0,-999.0,83,-99.99,,,0.00,0,weatherlink.com 1.10,2013-08-02 07:29:00,
2013-08-02 02:44:00,68.1,63.0,29.81,SSW,210,7.0,-999.0,83,-99.99,,,0.00,0,weatherlink.com 1.10,2013-08-02 07:44:00,
2013-08-02 02:59:00,67.4,63.0,29.81,SW,219,5.0,-999.0,85,-99.99,,,0.00,0,weatherlink.com 1.10,2013-08-02 07:59:00,
2013-08-02 03:14:00,67.1,63.0,29.82,SSW,209,4.0,-999.0,85,-99.99,,,0.00,0,weatherlink.com 1.10,2013-08-02 08:14:00,
2013-08-02 03:29:00,67.1,63.0,29.81,SSW,196,5.0,-999.0,85,-99.99,,,0.00,0,weatherlink.com 1.10,2013-08-02 08:29:00,
2013-08-02 03:44:00,67.8,63.0,29.81,SSW,209,11.0,-999.0,83,-99.99,,,0.00,0,weatherlink.com 1.10,2013-08-02 08:44:00,
2013-08-02 03:59:00,68.1,62.0,29.81,SW,215,9.0,-999.0,82,-99.99,,,0.00,0,weatherlink.com 1.10,2013-08-02 08:59:00,
2013-08-02 04:14:00,68.4,63.0,29.81,SW,219,5.0,-999.0,82,-99.99,,,0.00,0,weatherlink.com 1.10,2013-08-02 09:14:00,
2013-08-02 04:29:00,68.3,63.0,29.81,SW,215,5.0,-999.0,83,-99.99,,,0.00,0,weatherlink.com 1.10,2013-08-02 09:29:00,
2013-08-02 04:44:00,68.1,63.0,29.81,SSW,200,6.0,-999.0,83,-99.99,,,0.00,0,weatherlink.com 1.10,2013-08-02 09:44:00,
2013-08-02 04:59:00,67.9,63.0,29.81,SW,219,9.0,-999.0,83,-99.99,,,0.00,0,weatherlink.com 1.10,2013-08-02 09:59:00,
2013-08-02 05:14:00,67.9,63.0,29.81,SW,215,6.0,-999.0,83,-99.99,,,0.00,0,weatherlink.com 1.10,2013-08-02 10:14:00,
2013-08-02 05:29:00,68.4,63.0,29.81,West,275,10.0,-999.0,82,-99.99,,,0.00,0,weatherlink.com 1.10,2013-08-02 10:29:00,
2013-08-02 05:44:00,67.3,64.0,29.81,SSW,212,3.0,-999.0,90,-99.99,,,0.21,0,weatherlink.com 1.10,2013-08-02 10:44:00,
2013-08-02 05:59:00,66.6,64.0,29.81,SW,229,4.0,-999.0,92,-99.99,,,0.21,0,weatherlink.com 1.10,2013-08-02 10:59:00,
2013-08-02 06:14:00,66.1,64.0,29.81,SW,234,1.0,-999.0,93,-99.99,,,0.21,11,weatherlink.com 1.10,2013-08-02 11:14:00,
2013-08-02 06:29:00,66.0,64.0,29.82,SW,234,1.0,-999.0,93,-99.99,,,0.21,23,weatherlink.com 1.10,2013-08-02 11:29:00,
2013-08-02 06:44:00,65.8,64.0,29.82,SW,234,0.0,-999.0,94,-99.99,,,0.21,49,weatherlink.com 1.10,2013-08-02 11:44:00,
2013-08-02 06:59:00,66.0,65.0,29.82,SW,216,5.0,-999.0,95,-99.99,,,0.21,65,weatherlink.com 1.10,2013-08-02 11:59:00,
2013-08-02 07:14:00,66.4,65.0,29.82,SW,232,3.0,-999.0,95,-99.99,,,0.21,83,weatherlink.com 1.10,2013-08-02 12:14:00,
2013-08-02 07:29:00,67.1,66.0,29.83,WSW,245,5.0,-999.0,95,-99.99,,,0.21,118,weatherlink.com 1.10,2013-08-02 12:29:00,
2013-08-02 07:44:00,67.9,66.0,29.82,WSW,240,7.0,-999.0,94,-99.99,,,0.21,158,weatherlink.com 1.10,2013-08-02 12:44:00,
2013-08-02 07:59:00,68.9,67.0,29.82,West,275,9.0,-999.0,92,-99.99,,,0.21,185,weatherlink.com 1.10,2013-08-02 12:59:00,
2013-08-02 08:14:00,70.3,66.0,29.83,WSW,254,9.0,-999.0,87,-99.99,,,0.21,186,weatherlink.com 1.10,2013-08-02 13:14:00,
2013-08-02 08:29:00,71.1,66.0,29.82,West,263,9.0,-999.0,85,-99.99,,,0.21,357,weatherlink.com 1.10,2013-08-02 13:29:00,
2013-08-02 08:44:00,73.0,67.0,29.83,West,272,12.0,-999.0,82,-99.99,,,0.21,471,weatherlink.com 1.10,2013-08-02 13:44:00,
2013-08-02 08:59:00,74.0,67.0,29.82,West,267,12.0,-999.0,79,-99.99,,,0.21,476,weatherlink.com 1.10,2013-08-02 13:59:00,
2013-08-02 09:15:00,74.4,68.0,29.82,WNW,282,10.0,-999.0,79,-99.99,,,0.21,464,weatherlink.com 1.10,2013-08-02 14:15:00,
2013-08-02 09:30:00,76.0,68.0,29.82,WNW,288,7.0,-999.0,75,-99.99,,,0.21,568,weatherlink.com 1.10,2013-08-02 14:30:00,
2013-08-02 09:45:00,76.8,68.0,29.82,West,266,6.0,-999.0,74,-99.99,,,0.21,605,weatherlink.com 1.10,2013-08-02 14:45:00,
2013-08-02 10:00:00,78.3,67.0,29.82,WNW,288,8.0,-999.0,69,-99.99,,,0.21,636,weatherlink.com 1.10,2013-08-02 15:00:00,
2013-08-02 10:15:00,79.4,67.0,29.81,WNW,300,10.0,-999.0,66,-99.99,,,0.21,668,weatherlink.com 1.10,2013-08-02 15:15:00,
2013-08-02 10:30:00,80.3,67.0,29.81,WNW,292,6.0,-999.0,65,-99.99,,,0.21,701,weatherlink.com 1.10,2013-08-02 15:30:00,
2013-08-02 10:45:00,80.9,68.0,29.81,West,267,6.0,-999.0,66,-99.99,,,0.21,733,weatherlink.com 1.10,2013-08-02 15:45:00,
2013-08-02 11:00:00,81.2,68.0,29.82,West,278,10.0,-999.0,65,-99.99,,,0.21,758,weatherlink.com 1.10,2013-08-02 16:00:00,
2013-08-02 11:15:00,81.4,69.0,29.82,West,263,7.0,-999.0,67,-99.99,,,0.21,789,weatherlink.com 1.10,2013-08-02 16:15:00,
2013-08-02 11:30:00,81.6,68.0,29.82,West,269,7.0,-999.0,64,-99.99,,,0.21,803,weatherlink.com 1.10,2013-08-02 16:30:00,
2013-08-02 11:45:00,82.2,69.0,29.82,West,259,5.0,-999.0,65,-99.99,,,0.21,821,weatherlink.com 1.10,2013-08-02 16:45:00,
2013-08-02 12:00:00,82.6,68.0,29.81,West,279,11.0,-999.0,61,-99.99,,,0.21,840,weatherlink.com 1.10,2013-08-02 17:00:00,
2013-08-02 12:15:00,83.2,69.0,29.81,WSW,239,13.0,-999.0,63,-99.99,,,0.21,853,weatherlink.com 1.10,2013-08-02 17:15:00,
2013-08-02 12:30:00,83.2,70.0,29.82,West,267,12.0,-999.0,64,-99.99,,,0.21,865,weatherlink.com 1.10,2013-08-02 17:30:00,
2013-08-02 12:45:00,83.4,68.0,29.82,West,265,9.0,-999.0,61,-99.99,,,0.21,944,weatherlink.com 1.10,2013-08-02 17:45:00,
2013-08-02 13:00:00,84.1,68.0,29.82,West,273,10.0,-999.0,58,-99.99,,,0.21,1002,weatherlink.com 1.10,2013-08-02 18:00:00,
2013-08-02 13:30:00,83.2,69.0,29.82,West,263,5.0,-999.0,62,-99.99,,,0.21,306,weatherlink.com 1.10,2013-08-02 18:30:00,
2013-08-02 13:45:00,81.6,69.0,29.82,West,267,5.0,-999.0,65,-99.99,,,0.21,269,weatherlink.com 1.10,2013-08-02 18:45:00,
2013-08-02 14:00:00,82.0,69.0,29.82,West,274,12.0,-999.0,64,-99.99,,,0.21,364,weatherlink.com 1.10,2013-08-02 19:00:00,
2013-08-02 14:15:00,81.8,69.0,29.82,WNW,283,10.0,-999.0,65,-99.99,,,0.21,276,weatherlink.com 1.10,2013-08-02 19:15:00,
2013-08-02 14:30:00,81.1,69.0,29.82,West,259,11.0,-999.0,66,-99.99,,,0.21,260,weatherlink.com 1.10,2013-08-02 19:30:00,
2013-08-02 14:45:00,80.7,69.0,29.81,West,264,9.0,-999.0,68,-99.99,,,0.21,262,weatherlink.com 1.10,2013-08-02 19:45:00,
2013-08-02 15:00:00,82.4,70.0,29.82,West,265,4.0,-999.0,67,-99.99,,,0.21,926,weatherlink.com 1.10,2013-08-02 20:00:00,
2013-08-02 15:16:00,85.1,71.0,29.81,WNW,293,4.0,-999.0,62,-99.99,,,0.21,784,weatherlink.com 1.10,2013-08-02 20:16:00,
2013-08-02 15:30:00,85.1,69.0,29.80,WSW,243,11.0,-999.0,59,-99.99,,,0.21,207,weatherlink.com 1.10,2013-08-02 20:30:00,
2013-08-02 15:46:00,84.0,72.0,29.80,WSW,238,8.0,-999.0,68,-99.99,,,0.21,675,weatherlink.com 1.10,2013-08-02 20:46:00,
2013-08-02 16:01:00,82.8,70.0,29.80,SW,235,7.0,-999.0,66,-99.99,,,0.21,186,weatherlink.com 1.10,2013-08-02 21:01:00,
2013-08-02 16:16:00,81.6,70.0,29.79,West,265,6.0,-999.0,67,-99.99,,,0.21,185,weatherlink.com 1.10,2013-08-02 21:16:00,
2013-08-02 16:31:00,84.0,71.0,29.79,West,259,9.0,-999.0,65,-99.99,,,0.21,657,weatherlink.com 1.10,2013-08-02 21:31:00,
2013-08-02 16:46:00,84.0,69.0,29.79,West,270,9.0,-999.0,60,-99.99,,,0.21,587,weatherlink.com 1.10,2013-08-02 21:46:00,
2013-08-02 17:01:00,84.3,69.0,29.79,West,280,5.0,-999.0,60,-99.99,,,0.21,538,weatherlink.com 1.10,2013-08-02 22:01:00,
2013-08-02 17:16:00,82.0,69.0,29.79,West,274,5.0,-999.0,64,-99.99,,,0.21,158,weatherlink.com 1.10,2013-08-02 22:16:00,
2013-08-02 17:31:00,81.1,70.0,29.80,West,276,4.0,-999.0,68,-99.99,,,0.21,156,weatherlink.com 1.10,2013-08-02 22:31:00,
2013-08-02 17:46:00,80.5,69.0,29.80,West,273,3.0,-999.0,68,-99.99,,,0.21,125,weatherlink.com 1.10,2013-08-02 22:46:00,
2013-08-02 18:01:00,80.5,69.0,29.80,WNW,292,0.0,-999.0,68,-99.99,,,0.21,113,weatherlink.com 1.10,2013-08-02 23:01:00,
2013-08-02 18:15:00,80.1,70.0,29.80,WNW,284,3.0,-999.0,70,-99.99,,,0.21,76,weatherlink.com 1.10,2013-08-02 23:15:00,
2013-08-02 18:31:00,78.8,69.0,29.81,NW,325,4.0,-999.0,73,-99.99,,,0.21,26,weatherlink.com 1.10,2013-08-02 23:31:00,
2013-08-02 18:46:00,76.5,68.0,29.81,NW,317,5.0,-999.0,76,-99.99,,,0.21,14,weatherlink.com 1.10,2013-08-02 23:46:00,
2013-08-02 19:01:00,73.7,69.0,29.82,NW,304,19.0,-999.0,84,-99.99,,,0.26,11,weatherlink.com 1.10,2013-08-03 00:01:00,
2013-08-02 19:16:00,70.6,67.0,29.83,NNE,19,14.0,-999.0,89,-99.99,,,0.70,5,weatherlink.com 1.10,2013-08-03 00:16:00,
2013-08-02 19:31:00,70.1,67.0,29.85,NNW,344,2.0,-999.0,91,-99.99,,,1.11,18,weatherlink.com 1.10,2013-08-03 00:31:00,
2013-08-02 19:46:00,70.1,68.0,29.85,NW,311,2.0,-999.0,93,-99.99,,,1.20,11,weatherlink.com 1.10,2013-08-03 00:46:00,
2013-08-02 20:01:00,70.3,68.0,29.84,NW,319,5.0,-999.0,93,-99.99,,,1.20,0,weatherlink.com 1.10,2013-08-03 01:01:00,
2013-08-02 20:16:00,70.6,68.0,29.84,North,355,3.0,-999.0,92,-99.99,,,1.20,0,weatherlink.com 1.10,2013-08-03 01:16:00,
2013-08-02 20:31:00,70.4,67.0,29.84,North,355,6.0,-999.0,88,-99.99,,,1.20,0,weatherlink.com 1.10,2013-08-03 01:31:00,
2013-08-02 20:46:00,70.1,65.0,29.84,NNW,348,4.0,-999.0,84,-99.99,,,1.21,0,weatherlink.com 1.10,2013-08-03 01:46:00,
2013-08-02 21:01:00,69.3,65.0,29.85,North,355,1.0,-999.0,86,-99.99,,,1.21,0,weatherlink.com 1.10,2013-08-03 02:01:00,
2013-08-02 21:16:00,69.1,65.0,29.86,North,360,5.0,-999.0,85,-99.99,,,1.21,0,weatherlink.com 1.10,2013-08-03 02:16:00,
2013-08-02 21:31:00,68.6,64.0,29.86,North,9,6.0,-999.0,86,-99.99,,,1.21,0,weatherlink.com 1.10,2013-08-03 02:31:00,
2013-08-02 21:46:00,68.3,63.0,29.86,North,11,5.0,-999.0,84,-99.99,,,1.21,0,weatherlink.com 1.10,2013-08-03 02:46:00,
2013-08-02 22:01:00,67.8,63.0,29.87,North,360,0.0,-999.0,85,-99.99,,,1.21,0,weatherlink.com 1.10,2013-08-03 03:01:00,
2013-08-02 22:16:00,67.4,64.0,29.87,North,360,0.0,-999.0,87,-99.99,,,1.21,0,weatherlink.com 1.10,2013-08-03 03:16:00,
2013-08-02 22:31:00,67.1,64.0,29.88,North,360,0.0,-999.0,88,-99.99,,,1.21,0,weatherlink.com 1.10,2013-08-03 03:31:00,
2013-08-02 22:46:00,66.9,64.0,29.88,North,360,0.0,-999.0,90,-99.99,,,1.21,0,weatherlink.com 1.10,2013-08-03 03:46:00,
2013-08-02 23:01:00,66.9,64.0,29.88,North,360,0.0,-999.0,90,-99.99,,,1.21,0,weatherlink.com 1.10,2013-08-03 04:01:00,
2013-08-02 23:16:00,66.9,64.0,29.88,North,360,0.0,-999.0,90,-99.99,,,1.21,0,weatherlink.com 1.10,2013-08-03 04:16:00,
2013-08-02 23:31:00,66.6,64.0,29.89,North,360,0.0,-999.0,91,-99.99,,,1.21,0,weatherlink.com 1.10,2013-08-03 04:31:00,
2013-08-02 23:46:00,66.4,64.0,29.89,North,360,0.0,-999.0,92,-99.99,,,1.21,0,weatherlink.com 1.10,2013-08-03 04:46:00,